Lid_Strength_Index
1 1 1 1 1 1 2 3 3 3 3 3 3 3 3 2 2 4 5 3 4 6 6 5 6 7 7 8 11 9 9 9 11 13 13 13 17 14 15 13 13 14 16 19 19 20 18 11 11 13 11 11 9 9
3 2 2 2 2 2 3 3 3 3 3 3 3 3 3 2 2 3 6 3 3 5 6 4 5 5 6 5 6 7 8 9 8 11 13 15 16 18 15 16 12 14 13 14 13 14 11 11 11 10 9 10 9 8
3 3 3 3 3 3 3 3 3 3 3 3 3 3 3 3 2 3 5 3 3 5 6 5 7 4 4 4 3 8 7 6 7 7 10 11 14 14 16 15 14 12 11 13 13 11 10 9 10 9 8 8 8 8
4 4 4 4 4 4 4 4 4 4 4 4 4 4 3 2 2 2 4 2 2 5 9 8 2 4 2 4 4 4 5 5 6 7 11 13 14 11 15 12 13 12 11 12 13 11 10 9 10 10 9 9 10 10
3 4 4 4 4 4 4 4 4 4 4 4 3 3 2 2 2 2 2 2 1 5 9 8 6 4 3 3 4 4 4 6 9 11 15 13 11 11 13 12 15 11 12 13 12 10 10 9 10 9 10 10 10 11
3 3 3 3 4 4 4 4 4 4 4 3 3 2 2 2 2 3 5 2 0 2 6 11 5 6 4 3 4 5 5 6 8 9 12 9 8 10 13 14 10 10 10 9 9 8 10 10 11 10 11 11 11 11
3 3 3 3 3 3 3 3 3 3 3 2 2 2 2 2 3 5 5 4 1 1 6 10 11 6 4 5 6 6 6 8 8 10 13 10 9 9 15 14 10 9 9 9 10 10 12 11 12 12 12 12 11 12
2 2 2 2 2 2 2 2 2 2 2 2 2 2 2 1 2 3 3 1 2 4 6 10 11 9 5 8 9 6 10 9 9 11 13 12 11 14 14 12 11 11 10 10 11 11 10 12 12 13 13 12 13 14
1 2 2 1 1 1 1 1 1 2 2 2 2 1 2 3 5 5 0 1 0 5 9 10 12 13 6 8 9 10 10 13 9 13 12 10 14 13 12 12 11 11 10 12 13 13 12 13 14 13 13 14 14 15
1 1 1 1 1 1 1 0 0 0 0 1 2 4 7 4 0 1 3 5 5 6 6 9 8 11 9 13 12 12 12 13 13 12 10 13 13 13 13 12 11 12 12 12 14 15 14 14 14 14 14 14 14 14
1 1 1 0 0 0 0 0 0 0 1 2 5 7 4 2 4 7 11 10 9 11 10 11 11 12 8 13 13 13 14 14 14 13 12 13 13 13 12 12 11 11 11 11 12 12 12 13 14 14 14 14 14 14
1 1 2 2 2 2 3 2 2 3 3 3 3 2 3 5 9 11 12 12 11 12 12 11 10 9 11 9 12 13 15 14 15 12 13 15 14 13 12 12 12 11 11 12 11 12 12 13 13 13 14 14 14 15
5 4 3 3 4 4 4 4 3 3 3 3 5 9 8 12 13 14 15 14 14 13 12 12 13 12 12 11 14 15 15 16 14 15 15 15 13 12 12 12 12 12 12 12 12 12 12 13 13 14 15 15 15 15
5 4 4 4 4 4 4 4 4 3 5 10 12 14 14 15 15 15 14 14 14 14 13 13 13 13 14 14 15 15 15 14 17 19 19 15 13 12 11 11 12 12 12 12 13 13 14 14 15 14 15 15 16 16
5 5 5 5 5 5 5 5 5 7 10 13 13 16 15 14 13 13 13 13 13 13 13 13 13 12 14 14 14 15 16 18 17 18 15 13 12 12 12 12 13 13 13 14 14 15 15 15 15 16 16 16 16 17
5 6 6 5 5 5 5 6 7 8 12 13 14 15 14 15 15 14 14 14 12 13 13 13 14 14 14 14 15 16 16 18 17 15 14 13 13 13 13 13 13 13 14 14 15 15 15 16 16 16 17 17 18 18
6 8 6 5 6 6 6 8 10 13 14 14 15 15 15 14 16 15 14 14 12 13 14 13 16 18 14 16 18 17 18 16 15 14 14 13 14 14 13 13 14 14 14 14 14 14 15 15 16 17 18 18 17 18
9 8 6 5 6 7 8 9 13 14 15 14 16 16 16 16 17 16 15 14 13 13 16 18 15 19 22 22 21 19 18 16 13 14 13 13 13 13 13 13 13 13 14 14 15 15 15 16 16 17 17 17 17 17
9 8 7 6 7 10 13 13 12 15 15 14 15 15 15 17 16 16 15 15 14 14 15 17 21 22 21 20 20 20 18 17 15 14 14 13 13 13 13 13 13 14 14 15 15 16 16 16 16 16 16 16 17 17
8 8 8 8 8 12 13 13 11 14 15 15 15 17 18 18 18 17 17 16 16 17 19 21 21 21 21 20 19 18 18 16 14 16 18 17 16 16 16 15 16 16 16 17 17 17 17 18 18 17 17 17 17 18
10 10 10 10 12 12 14 14 13 13 13 14 14 15 18 17 19 20 20 17 19 20 21 20 20 19 18 18 18 17 18 18 19 18 18 19 18 17 18 17 17 18 18 19 19 19 19 19 18 18 18 18 18 18
12 10 14 13 14 14 15 14 14 14 14 14 15 15 19 23 23 20 18 21 21 21 19 19 19 19 19 19 19 18 18 18 18 19 19 19 20 20 20 19 19 20 20 19 19 19 19 18 18 18 19 18 18 18
9 11 14 14 16 16 17 13 16 14 17 17 16 17 19 19 18 16 23 20 20 19 18 18 18 18 19 18 18 18 18 18 19 19 20 20 20 20 20 20 19 20 21 20 19 20 20 19 19 20 19 19 19 20
10 16 19 19 17 22 19 19 15 16 18 19 19 19 17 19 18 21 22 20 18 17 17 17 17 18 18 19 20 20 19 18 19 19 18 19 21 21 21 21 21 20 20 19 20 21 21 21 21 21 22 22 23 24
15 17 19 22 20 20 24 23 21 19 23 22 21 19 21 19 24 24 23 20 19 20 19 17 17 18 19 19 19 18 17 18 19 20 20 18 18 19 20 20 20 20 19 22 23 23 24 25 25 26 25 29 25 28
17 16 17 23 21 20 23 21 21 24 23 20 21 19 24 25 27 25 20 20 21 18 19 19 18 18 19 19 20 20 19 18 19 21 20 20 20 22 23 24 23 21 21 28 29 30 29 30 32 29 32 29 29 33
18 20 16 14 15 17 21 22 20 23 23 23 24 26 27 30 28 20 16 16 17 17 17 18 18 18 18 18 18 18 18 18 19 20 19 20 20 20 23 26 25 22 20 23 27 28 29 29 31 30 32 35 35 34
14 18 22 22 21 19 24 26 26 25 23 17 23 28 31 30 24 18 16 15 16 16 17 18 19 20 21 20 20 21 21 21 21 22 22 22 23 23 25 26 26 21 27 29 29 30 29 28 27 28 29 30 28 30
20 21 19 25 24 22 21 24 23 19 17 21 29 26 23 19 20 18 16 16 16 17 20 20 21 24 24 23 24 24 24 27 27 30 33 33 32 27 28 32 32 31 32 31 26 23 21 23 24 27 28 28 27 27
21 21 23 26 24 22 23 23 25 27 20 21 19 19 19 20 18 16 18 18 20 25 29 30 31 29 31 30 30 27 27 32 31 30 33 32 29 27 32 34 34 34 37 37 37 33 27 33 30 33 33 32 33 31
21 22 22 23 22 23 22 26 27 26 28 27 28 27 25 23 21 19 20 23 25 28 27 29 28 32 30 31 33 33 31 29 31 31 31 31 32 34 34 34 35 37 38 37 38 38 37 37 38 39 37 34 32 30
24 26 24 23 19 20 21 20 27 26 27 28 27 30 28 29 28 24 23 24 28 28 29 32 30 28 29 31 33 34 30 32 32 31 31 31 33 33 34 34 37 38 38 38 39 39 38 38 39 40 39 36 34 34
27 28 27 24 21 20 20 19 21 23 26 25 25 26 28 28 28 24 23 28 27 29 30 31 31 31 29 31 31 33 31 34 34 26 25 26 25 27 35 37 38 38 36 38 39 39 37 37 38 38 37 38 36 35